Location: Unspecified
(0.0000°N, 0.0000°E)
Time: 19:25:58
(UTC+00:00)

COSMOS 2496 - Visible Passes

Search period start: 15 May 2026 00:00
Search period end: 25 May 2026 00:00
Orbit: 1478 x 1511 km, 82.4° (Epoch: 15 May)

Date Brightness Start Highest point End Pass type
(mag) Time Alt. Az. Time Alt. Az. Time Alt. Az.
15 May ? 03:18:27 10° ENE 03:20:28 11° E 03:22:29 10° E visible
15 May ? 05:08:14 10° N 05:16:53 75° W 05:25:36 10° S visible
16 May ? 04:19:21 10° NNE 04:27:43 53° E 04:36:06 10° SSE visible
17 May ? 03:32:05 10° NE 03:38:31 23° E 03:44:58 10° SE visible
17 May ? 05:26:53 10° NNW 05:34:55 43° W 05:43:03 10° SSW visible
18 May ? 04:37:03 10° N 04:45:44 89° E 04:54:30 10° S visible
19 May ? 03:48:33 10° NNE 03:56:34 42° E 04:04:37 10° SSE visible
20 May ? 03:01:59 10° NE 03:07:23 18° E 03:12:46 10° SE visible
20 May ? 04:55:25 10° NNW 05:03:47 54° W 05:12:15 10° SSW visible
21 May ? 04:05:57 10° N 04:14:37 74° E 04:23:19 10° S visible
22 May ? 03:17:51 10° NNE 03:25:26 34° E 03:33:00 10° SSE visible
22 May ? 05:14:35 10° NW 05:21:50 30° W 05:29:12 10° SSW visible
23 May ? 02:32:28 10° ENE 02:36:14 13° E 02:40:01 10° ESE visible
23 May ? 04:24:04 10° NNW 04:32:39 67° W 04:41:19 10° S visible
24 May ? 03:34:57 10° N 03:43:28 60° E 03:52:01 10° SSE visible
